Location: Banksville Park
(38.5557°N, 75.1182°W)
Time: 04:41:20
(UTC+00:00)

SL-4 R/B - Pass Details

Date: 19 September 2020
Orbit: 428 x 666 km, 51.6° (Epoch: 20 October)

Event Time Altitude Azimuth Distance (km) Brightness Sun altitude
Exits shadow 09:19:30 23° 208° (SSW) 1,301 3.5 -17.5°
Maximum altitude 09:22:08 59° 136° (SE) 733 2.7 -17.0°
Drops below altitude 10° 09:26:49 10° 58° (ENE) 2,062 6.1 -16.1°
Sets 09:29:14 0° 54° (NE) 2,992 7.1 -15.6°
